Home   Weather   Tripoli   Past weeks

Flag for Libya Past Weather in Tripoli, Libya — Yesterday and Last 2 Weeks

Now
66 °F

Clear.


Feels Like: 66 °F
Forecast: 65 / 80 °F
Wind: 13 mph from Northeast

Location: Djerba Mellita

Current Time: Apr 26, 2017 at 10:14:37 am

Latest Report: Apr 26, 2017 at 9:30 am


Visibility: 4 mi

Pressure: 29.86 "Hg

Humidity: 83%

Dew Point: 61 °F

Location of TripoliLocation

Past Weather in Tripoli — Graph

°F

Tripoli Temperature Yesterday

Maximum temperature yesterday: 70 °F (at 1:00 pm)
Minimum temperature yesterday: 63 °F (at 3:30 am)
Average temperature yesterday: 66 °F

High & Low Weather Summary for the Past Weeks

 TemperatureHumidityPressure
High86 °F (Apr 15, 3:00 pm)94% (Apr 13, 7:00 am)30.30 "Hg (Apr 13, 7:00 am)
Low48 °F (Apr 23, 7:00 am)22% (Apr 15, 4:30 pm)29.83 "Hg (Apr 18, 5:30 pm)
Average65 °F62%30.03 "Hg
* Reported Apr 11 9:00 am — Apr 26 9:00 am, Tripoli, Weather by CustomWeather, © 2017

Note: Actual official high and low records may vary slightly from our data, if they occured in-between our weather recording intervals... More about our weather records

Advertising

Tripoli Weather History for the Previous 24 Hours

Scroll right to see more
 ConditionsComfort  
Time TempWeatherWind HumidityBarometerVisibility
9:00 am
Wed, Apr 26
66 °FClear.12 mph83%29.86 "Hg4 mi
8:30 am64 °FClear.13 mph88%29.86 "Hg3 mi
8:00 am64 °FClear.13 mph88%29.83 "Hg3 mi
7:30 am63 °FClear.12 mph94%29.83 "Hg3 mi
7:00 am63 °FClear.13 mph88%29.83 "Hg3 mi
6:30 am63 °FPassing clouds.15 mph88%29.83 "Hg3 mi
6:00 am63 °FPassing clouds.14 mph88%29.83 "Hg3 mi
5:30 am63 °FPassing clouds.14 mph94%29.83 "Hg3 mi
5:00 am63 °FPassing clouds.13 mph94%29.83 "Hg3 mi
4:30 am63 °FPassing clouds.13 mph94%29.83 "Hg3 mi
4:00 am63 °FPassing clouds.13 mph94%29.83 "Hg3 mi
3:30 am64 °FPassing clouds.12 mph88%29.83 "Hg3 mi
2:00 am64 °FPassing clouds.10 mph88%29.86 "Hg3 mi
1:30 am64 °FPassing clouds.9 mph88%29.86 "Hg3 mi
1:00 am64 °FPassing clouds.9 mph88%29.86 "Hg3 mi
12:30 am64 °FPassing clouds.8 mph88%29.86 "Hg3 mi
12:00 am64 °FPassing clouds.7 mph88%29.86 "Hg3 mi
11:30 pm
Tue, Apr 25
64 °FPassing clouds.7 mph88%29.86 "Hg3 mi
11:00 pm64 °FPassing clouds.8 mph88%29.86 "Hg3 mi
10:30 pm64 °FPassing clouds.9 mph88%29.86 "Hg3 mi
9:30 pm64 °FPassing clouds.9 mph88%29.86 "Hg3 mi
9:00 pm64 °FPassing clouds.10 mph88%29.83 "Hg3 mi
8:30 pm64 °FPassing clouds.10 mph88%29.83 "Hg3 mi
8:00 pm64 °FPassing clouds.12 mph88%29.83 "Hg4 mi
7:30 pm66 °FPassing clouds.12 mph83%29.83 "Hg4 mi
7:00 pm66 °FPassing clouds.13 mph83%29.83 "Hg4 mi
6:30 pm66 °FPassing clouds.13 mph78%29.83 "Hg4 mi
6:00 pm68 °FPassing clouds.13 mph73%29.83 "Hg4 mi
5:30 pm68 °FPassing clouds.13 mph73%29.83 "Hg4 mi
5:00 pm70 °FPassing clouds.12 mph64%29.83 "Hg4 mi
4:30 pm70 °FScattered clouds.13 mph69%29.83 "Hg4 mi
4:00 pm68 °FScattered clouds.15 mph73%29.83 "Hg4 mi
3:30 pm70 °FScattered clouds.16 mph69%29.83 "Hg4 mi
3:00 pm68 °FScattered clouds.16 mph73%29.83 "Hg4 mi
2:00 pm70 °FScattered clouds.14 mph69%29.86 "Hg4 mi
1:30 pm70 °FScattered clouds.9 mph69%29.89 "Hg4 mi
1:00 pm70 °FScattered clouds.9 mph69%29.89 "Hg4 mi
12:30 pm68 °FScattered clouds.12 mph73%29.89 "Hg4 mi
12:00 pm68 °FScattered clouds.9 mph73%29.89 "Hg4 mi
11:00 am66 °FScattered clouds.8 mph78%29.89 "Hg3 mi
10:30 am66 °FScattered clouds.12 mph78%29.89 "Hg3 mi
10:00 am64 °FScattered clouds.14 mph83%29.89 "Hg3 mi
Weather by CustomWeather, © 2017

See weather overviewHow to use our weather pages